Abilene, TX

9:04 PM CDT on September 30, 2016 (GMT -0500)
Abilene Regional

Weather History for KABI - November, 2013

Change the Weather History Date:

Thursday, November 7, 2013

  Actual Average Record
Temperature  
Mean Temperature 49 °F 58 °F  
Max Temperature 65 °F 70 °F 89 °F (1963)
Min Temperature 32 °F 47 °F 28 °F (1959)
Degree Days  
Heating Degree Days 16 8  
Month to date heating degree days 53 49  
Since 1 July heating degree days 132 153  
Cooling Degree Days 0 1  
Month to date cooling degree days 3 9  
Year to date cooling degree days 2712 2398  
Moisture  
Dew Point 28 °F    
Average Humidity 54    
Maximum Humidity 89    
Minimum Humidity 18    
Precipitation  
Precipitation 0.00 in 0.05 in 0.83 in (1918)
Month to date precipitation T 0.43  
Year to date precipitation 20.91 22.61  
Sea Level Pressure  
Sea Level Pressure 30.43 in    
Wind  
Wind Speed 5 mph (SSE)    
Max Wind Speed 13 mph    
Max Gust Speed 16 mph    
Visibility 10 miles    
Events      
T = Trace of Precipitation, MM = Missing Value Source: NWS Daily Summary

Daily Weather History Graph

Daily Weather History Graph

Search for Another Location

Airport or City:

Trip Planner

Search our weather history database for the weather conditions in past years. The results will help you decide how hot, cold, wet, or windy it might be!

Date:

Astronomy

Nov. 07, 2013 Rise Set
Actual Time 7:01 AM CST 5:43 PM CST
Civil Twilight 6:35 AM CST 6:08 PM CST
Nautical Twilight 6:06 AM CST 6:38 PM CST
Astronomical Twilight 5:37 AM CST 7:06 PM CST
Moon 11:08 AM CST (11/7) 9:58 PM CST (11/7)
Length of Visible Light 11h 33m
Length of Day
10h 41m
Waxing Crescent, 23% of the Moon is Illuminated
Nov 7
Waxing Crescent
Nov 9
First Quarter
Nov 17
Full
Nov 25
Last Quarter
Dec 2
New

Hourly Weather History & Observations

Time (CST) Temp. Windchill Dew Point Humidity Pressure Visibility Wind Dir Wind Speed Gust Speed Precip Events Conditions
12:52 AM 41.0 °F - 28.0 °F 60% 30.38 in 10.0 mi Calm Calm - N/A   Clear
1:52 AM 37.0 °F 34.5 °F 28.9 °F 73% 30.40 in 10.0 mi SSW 3.5 mph - N/A   Clear
2:52 AM 35.1 °F 31.0 °F 28.0 °F 76% 30.40 in 10.0 mi SW 4.6 mph - N/A   Clear
3:52 AM 34.0 °F 29.8 °F 28.9 °F 82% 30.43 in 10.0 mi South 4.6 mph - N/A   Clear
4:52 AM 35.1 °F - 28.9 °F 78% 30.43 in 10.0 mi Calm Calm - N/A   Clear
5:52 AM 32.0 °F 26.4 °F 27.0 °F 82% 30.48 in 10.0 mi South 5.8 mph - N/A   Clear
6:52 AM 33.1 °F 30.0 °F 28.0 °F 82% 30.49 in 10.0 mi South 3.5 mph - N/A   Clear
7:52 AM 34.0 °F 29.8 °F 30.0 °F 85% 30.51 in 10.0 mi SSE 4.6 mph - N/A   Clear
8:52 AM 46.0 °F - 30.9 °F 56% 30.51 in 10.0 mi Calm Calm - N/A   Clear
9:52 AM 55.0 °F - 28.0 °F 35% 30.50 in 10.0 mi Calm Calm - N/A   Clear
10:52 AM 59.0 °F - 24.1 °F 26% 30.49 in 10.0 mi ENE 5.8 mph - N/A   Clear
11:52 AM 63.0 °F - 21.0 °F 20% 30.48 in 10.0 mi East 4.6 mph - N/A   Clear
12:52 PM 64.0 °F - 19.9 °F 18% 30.44 in 10.0 mi ENE 4.6 mph - N/A   Clear
1:52 PM 64.0 °F - 21.9 °F 20% 30.42 in 10.0 mi ESE 9.2 mph - N/A   Clear
2:52 PM 62.1 °F - 25.0 °F 24% 30.41 in 10.0 mi SE 8.1 mph - N/A   Clear
3:52 PM 62.1 °F - 27.0 °F 26% 30.40 in 10.0 mi South 5.8 mph - N/A   Clear
4:52 PM 60.1 °F - 28.0 °F 30% 30.40 in 10.0 mi SSE 5.8 mph - N/A   Clear
5:52 PM 55.9 °F - 30.0 °F 37% 30.41 in 10.0 mi SSE 5.8 mph - N/A   Clear
6:52 PM 52.0 °F - 33.1 °F 49% 30.41 in 10.0 mi SSE 5.8 mph - N/A   Clear
7:52 PM 50.0 °F - 33.1 °F 52% 30.42 in 10.0 mi SSE 6.9 mph - N/A   Clear
8:52 PM 48.9 °F - 33.1 °F 54% 30.40 in 10.0 mi SSE 4.6 mph - N/A   Clear
9:52 PM 46.9 °F - 34.0 °F 61% 30.40 in 10.0 mi SSE 6.9 mph - N/A   Clear
10:52 PM 46.9 °F - 35.1 °F 63% 30.38 in 10.0 mi SSE 6.9 mph - N/A   Clear
11:52 PM 46.9 °F - 34.0 °F 61% 30.37 in 10.0 mi SSE 5.8 mph - N/A   Clear